[[{"header":{"parameterUnit":"m.s-1","parameterCategory":2,"la1":30.2991,"la2":30.254,"lo1":-89.0895,"lo2":-89.0444,"dy":0.0017,"dx":0.0017,"nx":28,"ny":28,"refTime":"2025-07-10T21:00:00:Z","depth":"0","parameterNumber":2,"parameterNumberName":"U-component_of_CURRENTS"},"data":[0,0,0,0,0,0,0,0,0,0,0,0,0,0,0,0,0,0,0,0,0,0,0,0,0,0,0,0,0,0,0,0,0,0,0,0,0,0,0,0,0,0,0,0,0,0,0,0,0,0,0,0,0,0,0,0,0,0,0.303,0.3031,0,0.3102,0.3102,0.3103,0.3107,0.3106,0.3105,0.3104,0.3249,0.3254,0.3258,0,0,0,0,0,0,0,0,0,0,0,0,0,0.2997,0.2997,0.303,0.3031,0.3032,0.3101,0.3103,0.3104,0.3107,0.3106,0.3105,0.3104,0.3248,0.3253,0.3259,0,0,0,0,0,0,0,0,0,0,0,0,0,0.3036,0.2997,0.303,0.3041,0.3042,0.3101,0.3103,0.3104,0.3108,0.3106,0.3105,0.3103,0.3246,0.3253,0.326,0.3333,0,0,0.3282,0.3285,0,0,0,0,0,0,0,0,0.3033,0.3037,0.3038,0.304,0.3042,0.3092,0.3144,0.3184,0.3108,0.3085,0.3104,0.3103,0.3204,0.3214,0.3232,0.334,0.3346,0.3282,0.3287,0.329,0.3292,0,0,0,0,0,0,0,0.3031,0.3035,0.306,0.3039,0.3041,0.3076,0.3079,0.3152,0.3154,0.3086,0.3086,0.3092,0.3205,0.3225,0.3236,0.3348,0.3282,0.3288,0.3293,0.3296,0.3631,0.3635,0,0,0,0,0,0,0.3015,0.3032,0.3058,0.3062,0.3032,0.3077,0.3081,0.3079,0.3152,0.316,0.3093,0.3092,0.3214,0.3227,0.3241,0.3405,0.329,0.3296,0.33,0.3626,0.3632,0.3637,0,0,0,0,0,0,0.3014,0.3016,0.3055,0.3048,0.3055,0.3078,0.3077,0.3081,0.3101,0.3156,0.3166,0.3108,0.3213,0.3231,0.3329,0.3408,0.3299,0.3306,0.3621,0.3628,0.3634,0.3687,0,0,0,0,0,0,0.3012,0.3015,0.3015,0.3046,0.3054,0.3102,0.3079,0.3084,0.3106,0.3105,0.3173,0.3184,0.3213,0.3318,0.3336,0.3416,0.3312,0.3615,0.3624,0.3632,0.368,0.3695,0.3708,0,0,0,0,0,0.3011,0.3015,0.3015,0.3018,0.3051,0.3103,0.3112,0.3125,0.3108,0.3134,0.3185,0.3182,0.3387,0.3327,0.3347,0.3431,0.3611,0.3621,0.3631,0.3673,0.3692,0.3708,0,0,0,0,0,0,0.3004,0.3017,0.3017,0.3025,0.3066,0.3103,0.3122,0.3131,0.3189,0.3188,0.3228,0.3247,0.3374,0.3399,0.3332,0.3559,0.3505,0.352,0.353,0.3548,0.3562,0.3565,0.3317,0,0,0,0,0,0.3001,0.3005,0.3037,0.3047,0.3063,0.3094,0.3115,0.313,0.318,0.32,0.3254,0.3331,0.3436,0.3481,0.357,0.3678,0.3677,0.3754,0.3768,0.3779,0.3801,0.3871,0.3892,0.3671,0.3671,0.3671,0,0,0.3001,0.3009,0.3011,0.3046,0.3071,0.3131,0.3104,0.3143,0.3211,0.3213,0.3322,0.3384,0.348,0.3612,0.3672,0.3637,0.3837,0.3792,0.3801,0.3817,0.3884,0.3905,0.3923,0.3678,0.3677,0.3675,0,0,0.3011,0.3011,0.3023,0.3067,0.311,0.3151,0.3163,0.3217,0.3255,0.3361,0.3403,0.3504,0.3636,0.3729,0.3792,0.3942,0.3915,0.3979,0.4046,0.4114,0.4131,0.4146,0.4128,0.4142,0.3978,0.3978,0.3978,0,0.3012,0.3034,0.3042,0.3085,0.3134,0.3164,0.3225,0.3286,0.3374,0.3429,0.3405,0.364,0.3703,0.3891,0.3949,0.3974,0.3974,0.3959,0.4127,0.4142,0.4157,0.4136,0.415,0.3982,0.3981,0.3981,0.3981,0,0.3044,0.3077,0.3095,0.3164,0.3225,0.328,0.3367,0.3438,0.3482,0.3546,0.3712,0.3798,0.393,0.3984,0.4014,0.4184,0.4134,0.4132,0.4064,0.4181,0.4152,0.4165,0.3987,0.3986,0.3985,0.3984,0,0,0.3015,0.3097,0.3107,0.3158,0.3272,0.3326,0.3458,0.3588,0.3672,0.3767,0.3889,0.4071,0.4089,0.4166,0.4219,0.4286,0.4374,0.4257,0.4258,0.4204,0.4464,0.4223,0.4213,0.4393,0.4397,0.44,0.4382,0,0.3044,0.3115,0.3174,0.3296,0.3349,0.345,0.3572,0.3697,0.3797,0.3925,0.4032,0.4169,0.417,0.4231,0.4308,0.4377,0.4421,0.4375,0.439,0.439,0.4134,0.4227,0.4024,0.3974,0.4395,0.4397,0.4398,0,0.3061,0.3111,0.3198,0.3352,0.3388,0.3476,0.3666,0.3782,0.3972,0.405,0.4188,0.4264,0.442,0.4381,0.4518,0.4484,0.4489,0.4508,0.4507,0.428,0.4177,0.3941,0.3982,0.3903,0.4419,0.4417,0.4416,0,0.301,0.3144,0.3208,0.3259,0.3429,0.3503,0.3613,0.3802,0.3918,0.4123,0.4203,0.4381,0.445,0.453,0.4555,0.4553,0.4649,0.4642,0.4423,0.4402,0.4232,0.4188,0.4172,0.4734,0.4734,0.4734,0.4734,0,0.3011,0.3073,0.3178,0.3212,0.3334,0.3462,0.3613,0.3752,0.3946,0.4074,0.4241,0.4342,0.4494,0.4558,0.4586,0.4512,0.4662,0.4445,0.4402,0.4237,0.4197,0.4119,0.4106,0.4733,0.4733,0.4733,0.4734,0,0.2944,0.3008,0.3092,0.324,0.3299,0.3377,0.3598,0.37,0.3883,0.405,0.4116,0.4325,0.4373,0.4458,0.4557,0.4493,0.4349,0.4428,0.417,0.4095,0.376,0.3756,0.3577,0.3484,0.4178,0.4172,0.4167,0,0.2917,0.2936,0.3072,0.3118,0.3181,0.3318,0.3414,0.3644,0.3753,0.4011,0.4069,0.4187,0.4223,0.4236,0.4176,0.4126,0.4115,0.3894,0.3862,0.3712,0.3682,0.3606,0.3541,0.3655,0.3646,0.3639,0.3633,0,0.2872,0.2897,0.2951,0.303,0.3117,0.3241,0.3384,0.347,0.3712,0.3812,0.392,0.3968,0.3961,0.3805,0.3721,0.3691,0.3683,0.3736,0.3707,0.3364,0.3166,0.3063,0.365,0.357,0.3576,0.3581,0.3584,0.3587,0.2827,0.2835,0.2878,0.295,0.3039,0.3118,0.3162,0.3287,0.3395,0.3489,0.3647,0.3595,0.3544,0.3371,0.3316,0.3078,0.3167,0.2986,0.3019,0.2975,0.2806,0.3182,0.2969,0.2972,0.2974,0.2977,0.2978,0,0.277,0.2769,0.2812,0.2871,0.2892,0.299,0.3104,0.3093,0.3095,0.3174,0.3191,0.3058,0.2874,0.2831,0.26,0.2438,0.2406,0.2377,0.2317,0.2313,0.2759,0.2657,0.2214,0.2214,0.2214,0.2214,0.2214,0.2214,0.274,0.2719,0.2719,0.2703,0.2732,0.2719,0.2736,0.271,0.2729,0.26,0.2491,0.2489,0.251,0.2345,0.213,0.207,0.1994,0.1803,0.19,0.2307,0.2371,0.2431,0.2335,0.1831,0.1831,0.136,0.1356,0.1353]},{"header":{"parameterUnit":"m.s-1","parameterCategory":2,"la1":30.2991,"la2":30.254,"lo1":-89.0895,"lo2":-89.0444,"dy":0.0017,"dx":0.0017,"nx":28,"ny":28,"refTime":"2025-07-10T21:00:00:Z","depth":"0","parameterNumber":3,"parameterNumberName":"V-component_of_CURRENTS"},"data":[0,0,0,0,0,0,0,0,0,0,0,0,0,0,0,0,0,0,0,0,0,0,0,0,0,0,0,0,0,0,0,0,0,0,0,0,0,0,0,0,0,0,0,0,0,0,0,0,0,0,0,0,0,0,0,0,0,0,0.0086,0.0085,0,0.0008,0.0007,0.0006,-0.0035,-0.0034,-0.0034,-0.0034,-0.0114,-0.0116,-0.0118,0,0,0,0,0,0,0,0,0,0,0,0,0,0.0131,0.0131,0.0086,0.0085,0.0084,0.0008,0.0007,0.0006,-0.0035,-0.0034,-0.0034,-0.0034,-0.0113,-0.0116,-0.0118,0,0,0,0,0,0,0,0,0,0,0,0,0,0.0088,0.0131,0.0086,0.0055,0.0052,0.0008,0.0007,0.0006,-0.0035,-0.0034,-0.0034,-0.0034,-0.0112,-0.0115,-0.0119,-0.0139,0,0,-0.0128,-0.013,0,0,0,0,0,0,0,0,0.009,0.0086,0.0061,0.0057,0.0054,-0.0003,-0.0006,-0.0043,-0.0035,-0.0003,-0.0034,-0.0034,-0.0076,-0.0082,-0.0098,-0.0143,-0.0146,-0.0129,-0.0131,-0.0132,-0.0133,0,0,0,0,0,0,0,0.0093,0.0089,0.0054,0.006,0.0055,0.0022,0.0017,-0.0014,-0.0039,-0.0005,-0.0008,-0.0016,-0.0078,-0.0095,-0.0101,-0.0148,-0.0129,-0.0131,-0.0133,-0.0135,-0.0198,-0.0198,0,0,0,0,0,0,0.0108,0.0092,0.0057,0.0052,0.0073,0.0022,0.0015,0.0015,-0.0039,-0.0047,-0.0015,-0.0017,-0.009,-0.0097,-0.0103,-0.0094,-0.0132,-0.0135,-0.0137,-0.0199,-0.0198,-0.0198,0,0,0,0,0,0,0.011,0.0106,0.006,0.007,0.0062,0.0022,0.002,0.0013,0.0,-0.0047,-0.0055,-0.002,-0.009,-0.0099,-0.0122,-0.0098,-0.0136,-0.0139,-0.0199,-0.0199,-0.0198,-0.0098,0,0,0,0,0,0,0.0112,0.0107,0.011,0.0072,0.0062,0.0043,0.002,0.0012,-0.0004,-0.0007,-0.0053,-0.0061,-0.0091,-0.0117,-0.0125,-0.0103,-0.0142,-0.0199,-0.0199,-0.0198,-0.0101,-0.0094,-0.0088,0,0,0,0,0,0.0114,0.0122,0.0111,0.0107,0.0069,0.0043,0.0035,0.0005,-0.0004,-0.0007,-0.0036,-0.0059,-0.012,-0.0119,-0.0129,-0.0108,-0.0199,-0.0199,-0.0198,-0.0104,-0.0096,-0.0088,0,0,0,0,0,0,0.0141,0.0118,0.0105,0.0105,0.0079,0.0037,0.0032,0.0011,-0.0016,-0.0015,-0.0058,-0.0068,-0.0078,-0.0114,-0.0112,-0.0127,-0.0163,-0.0164,-0.0088,-0.008,-0.0074,-0.0028,-0.0144,0,0,0,0,0,0.015,0.0152,0.0119,0.0119,0.0111,0.0073,0.0058,0.0039,0.001,-0.0001,-0.0034,-0.0066,-0.0085,-0.0098,-0.0128,-0.0138,-0.014,-0.0133,-0.0126,-0.012,-0.0091,-0.0053,-0.0039,-0.0196,-0.0196,-0.0196,0,0,0.0159,0.0147,0.0147,0.0125,0.0104,0.0102,0.0065,0.0051,0.0053,-0.0005,-0.0013,-0.0045,-0.0084,-0.0091,-0.0099,-0.0116,-0.0085,-0.0119,-0.0113,-0.0087,-0.0051,-0.0035,-0.0021,-0.0196,-0.0196,-0.0196,0,0,0.0184,0.0172,0.0183,0.0167,0.0144,0.0124,0.0125,0.0088,0.0077,0.006,0.0029,0.0026,-0.0033,-0.0033,-0.0045,-0.0019,-0.0049,-0.005,0.0026,0.0061,0.0076,0.0089,0.0079,0.0091,-0.0045,-0.0045,-0.0045,0,0.0196,0.0208,0.018,0.0185,0.0185,0.0142,0.0157,0.0137,0.0096,0.0105,0.007,0.005,0.0009,0.0043,0.0042,0.0005,-0.0004,0.0002,0.0076,0.0088,0.01,0.0087,0.0099,-0.004,-0.0041,-0.0041,-0.0042,0,0.0228,0.0236,0.0242,0.0243,0.0236,0.0241,0.0217,0.0213,0.0194,0.018,0.02,0.016,0.0157,0.0136,0.009,0.015,0.0105,0.0084,0.0067,0.0123,0.0104,0.0114,-0.0033,-0.0035,-0.0037,-0.0038,0,0,0.0265,0.0266,0.0271,0.0289,0.0272,0.0277,0.0289,0.0299,0.0334,0.0299,0.0358,0.0318,0.0307,0.0294,0.0254,0.0276,0.0325,0.021,0.021,0.0222,0.0371,0.031,0.0314,0.0315,0.0318,0.032,0.0315,0,0.0302,0.034,0.0326,0.0366,0.0389,0.0367,0.039,0.0395,0.0391,0.0431,0.0424,0.0449,0.0363,0.0376,0.0388,0.0345,0.036,0.0326,0.0297,0.0295,0.0254,0.0328,0.0331,0.0326,0.0325,0.0327,0.0328,0,0.0342,0.0367,0.0415,0.0455,0.0464,0.0479,0.0534,0.0552,0.0587,0.0591,0.0621,0.06,0.0628,0.0556,0.0541,0.0517,0.0455,0.042,0.0418,0.0345,0.0256,0.0273,0.0344,0.0271,0.0343,0.0342,0.0341,0,0.0401,0.0435,0.0484,0.0491,0.0521,0.0548,0.0575,0.0606,0.0659,0.071,0.0762,0.0764,0.0796,0.074,0.0625,0.059,0.0609,0.0553,0.0446,0.0438,0.043,0.0418,0.0455,0.0571,0.0571,0.0572,0.0572,0,0.0454,0.0493,0.0517,0.0542,0.0623,0.062,0.0717,0.0734,0.0809,0.0909,0.0861,0.0945,0.0848,0.0825,0.07,0.0603,0.0664,0.0489,0.0457,0.0457,0.0447,0.037,0.0302,0.0571,0.0571,0.0571,0.0571,0,0.0505,0.0516,0.0578,0.0625,0.0649,0.0712,0.0813,0.0893,0.0934,0.1073,0.1103,0.1106,0.1064,0.0937,0.085,0.0713,0.0563,0.0563,0.054,0.0507,0.0319,0.0254,0.0233,0.0207,0.0456,0.0455,0.0454,0,0.0532,0.0567,0.0645,0.0701,0.0723,0.0818,0.0898,0.0958,0.1054,0.1179,0.1264,0.1258,0.1271,0.1093,0.086,0.0651,0.0552,0.0502,0.0447,0.0341,0.0246,0.0201,0.0178,0.0458,0.0457,0.0457,0.0456,0,0.0586,0.061,0.0665,0.0783,0.0869,0.0985,0.1098,0.1194,0.1294,0.1403,0.1528,0.1547,0.1364,0.116,0.0847,0.069,0.0445,0.0479,0.041,0.0297,0.0216,0.0164,0.0388,0.045,0.045,0.0451,0.0451,0.0451,0.0627,0.068,0.0756,0.0872,0.0981,0.1129,0.1242,0.1376,0.1541,0.1707,0.1712,0.1755,0.1437,0.1012,0.0797,0.0403,0.0396,0.0283,0.0223,0.0196,0.0155,0.0337,0.0333,0.0333,0.0333,0.0333,0.0333,0,0.0676,0.074,0.0846,0.0983,0.1113,0.1164,0.1363,0.1491,0.169,0.1819,0.1915,0.1763,0.1393,0.1,0.0454,0.0206,0.0135,0.0075,0.0044,0.0041,0.0253,0.0238,0.0166,0.0166,0.0166,0.0166,0.0166,0.0166,0.0703,0.08,0.0854,0.1061,0.1171,0.1355,0.1475,0.1667,0.1797,0.1947,0.1951,0.1927,0.1598,0.0692,0.014,0.0021,-0.0104,-0.0178,-0.0227,-0.0068,-0.0052,-0.0036,-0.0062,-0.0196,-0.0196,-0.0382,-0.0384,-0.0386]}],[{"header":{"parameterUnit":"m.s-1","parameterCategory":2,"la1":30.2991,"la2":30.254,"lo1":-89.0895,"lo2":-89.0444,"dy":0.0017,"dx":0.0017,"nx":28,"ny":28,"refTime":"2025-07-10T21:00:00:Z","depth":"2","parameterNumber":2,"parameterNumberName":"U-component_of_CURRENTS"},"data":[0,0,0,0,0,0,0,0,0,0,0,0,0,0,0,0,0,0,0,0,0,0,0,0,0,0,0,0,0,0,0,0,0,0,0,0,0,0,0,0,0,0,0,0,0,0,0,0,0,0,0,0,0,0,0,0,0,0,0.2496,0.2497,0,0.2502,0.2502,0.2502,0.249,0.249,0.249,0.2489,0.2575,0.2577,0.258,0,0,0,0,0,0,0,0,0,0,0,0,0,0.2497,0.2496,0.2496,0.2497,0.2497,0.2502,0.2502,0.2502,0.249,0.249,0.249,0.2489,0.2574,0.2577,0.258,0,0,0,0,0,0,0,0,0,0,0,0,0,0.2497,0.2496,0.2496,0.2493,0.2493,0.2502,0.2502,0.2502,0.249,0.249,0.249,0.2489,0.2573,0.2577,0.2581,0.261,0,0,0.2592,0.2594,0,0,0,0,0,0,0,0,0.2497,0.2497,0.2493,0.2493,0.2493,0.2497,0.2534,0.2543,0.249,0.2489,0.2489,0.2489,0.2558,0.2563,0.2561,0.2614,0.2618,0.2592,0.2595,0.2596,0.2597,0,0,0,0,0,0,0,0.2497,0.2497,0.2497,0.2493,0.2493,0.2499,0.2498,0.2535,0.2525,0.2489,0.2489,0.2493,0.2558,0.2557,0.2563,0.2619,0.2592,0.2595,0.2598,0.2599,0.2679,0.2678,0,0,0,0,0,0,0.2499,0.2497,0.2497,0.2497,0.2496,0.2499,0.2498,0.2494,0.2523,0.2527,0.2493,0.2492,0.2551,0.2559,0.2566,0.2682,0.2596,0.26,0.2602,0.2679,0.2679,0.2678,0,0,0,0,0,0,0.2499,0.2499,0.2497,0.2499,0.2499,0.2499,0.2495,0.2495,0.2506,0.2525,0.253,0.2506,0.2551,0.2561,0.2605,0.2683,0.2601,0.2605,0.2679,0.2679,0.2678,0.2864,0,0,0,0,0,0,0.2499,0.2498,0.2502,0.2499,0.2499,0.2514,0.2496,0.2495,0.2509,0.2508,0.2539,0.2545,0.2551,0.2599,0.2608,0.2686,0.2608,0.2679,0.2679,0.2679,0.2858,0.2871,0.2881,0,0,0,0,0,0.2499,0.2504,0.2502,0.2503,0.2502,0.2515,0.2516,0.2514,0.251,0.2521,0.2536,0.2544,0.2603,0.2603,0.2614,0.2695,0.2679,0.2679,0.2679,0.2853,0.2868,0.2881,0,0,0,0,0,0,0.2506,0.2504,0.2501,0.2506,0.2516,0.2514,0.2524,0.2525,0.2544,0.2547,0.256,0.2569,0.2649,0.2613,0.2613,0.2701,0.2636,0.2638,0.2765,0.2779,0.279,0.2802,0.2611,0,0,0,0,0,0.251,0.2512,0.2516,0.2521,0.2528,0.253,0.2537,0.2538,0.2551,0.2558,0.2581,0.2597,0.2652,0.2667,0.2699,0.2747,0.2724,0.2789,0.2801,0.2811,0.2819,0.2873,0.2893,0.2677,0.2677,0.2677,0,0,0.2514,0.2514,0.2515,0.2524,0.2529,0.2555,0.2533,0.2549,0.2591,0.2568,0.2631,0.266,0.2674,0.2746,0.2773,0.2729,0.2849,0.2811,0.2822,0.2823,0.2875,0.2897,0.2917,0.2677,0.2677,0.2677,0,0,0.2525,0.2525,0.2533,0.2549,0.2564,0.2576,0.2587,0.26,0.2627,0.2682,0.2695,0.2753,0.28,0.284,0.2865,0.2941,0.2927,0.2943,0.301,0.3064,0.3084,0.3102,0.3071,0.3084,0.2929,0.2929,0.293,0,0.2532,0.2541,0.254,0.256,0.258,0.2592,0.2619,0.2659,0.269,0.2738,0.2717,0.2827,0.2853,0.2962,0.2995,0.2982,0.2973,0.298,0.3088,0.3105,0.312,0.3084,0.3096,0.2938,0.2937,0.2936,0.2935,0,0.255,0.2567,0.2577,0.2609,0.2634,0.2659,0.2709,0.2753,0.279,0.2843,0.2956,0.2978,0.3034,0.3064,0.3071,0.3192,0.3137,0.3126,0.3077,0.3155,0.3108,0.3118,0.2951,0.2948,0.2945,0.2943,0,0,0.2537,0.258,0.2585,0.2608,0.2662,0.2681,0.277,0.2861,0.2936,0.2995,0.3083,0.3199,0.3214,0.3236,0.3246,0.3294,0.3402,0.3262,0.3261,0.3269,0.3473,0.3302,0.3294,0.3434,0.3437,0.344,0.3389,0,0.2552,0.2588,0.2616,0.2675,0.2698,0.2754,0.2841,0.2934,0.3014,0.3108,0.3181,0.3287,0.328,0.3321,0.3375,0.3409,0.344,0.3412,0.336,0.3356,0.323,0.3306,0.3067,0.2992,0.3398,0.34,0.3401,0,0.2557,0.2582,0.2621,0.2708,0.2727,0.2778,0.2902,0.2978,0.3136,0.3223,0.3325,0.3378,0.3483,0.3448,0.3532,0.3519,0.3513,0.3515,0.3513,0.3299,0.3206,0.2979,0.2994,0.3417,0.3415,0.3414,0.3413,0,0.2521,0.2592,0.2619,0.2643,0.2742,0.2792,0.2861,0.3012,0.3099,0.3289,0.3358,0.3493,0.3521,0.3584,0.358,0.3586,0.3624,0.3618,0.3442,0.3425,0.3178,0.3134,0.3678,0.3678,0.3678,0.3678,0.3678,0,0.2513,0.2542,0.2606,0.2619,0.2697,0.2768,0.2881,0.2996,0.314,0.3236,0.3393,0.3445,0.3568,0.3586,0.3604,0.3526,0.3636,0.3463,0.3424,0.3224,0.3187,0.352,0.3502,0.3676,0.3677,0.3677,0.3677,0,0.2462,0.2498,0.2536,0.2631,0.2671,0.2716,0.287,0.2947,0.3109,0.3209,0.3275,0.3424,0.3461,0.3509,0.3571,0.3502,0.3494,0.3434,0.3146,0.3074,0.3247,0.3239,0.3247,0.3241,0.3236,0.3232,0.3228,0,0.2437,0.2443,0.252,0.2542,0.2583,0.2675,0.2743,0.2925,0.2988,0.3163,0.3172,0.3267,0.3288,0.328,0.3241,0.3208,0.3335,0.2933,0.2913,0.3253,0.3214,0.3214,0.3213,0.2639,0.2631,0.2625,0.262,0,0.2393,0.241,0.2435,0.2477,0.2529,0.2595,0.2682,0.2726,0.2893,0.2974,0.3009,0.3043,0.3031,0.2885,0.2845,0.2806,0.2932,0.2791,0.326,0.278,0.2675,0.2638,0.2659,0.2561,0.2567,0.2571,0.2574,0.2576,0.2355,0.2353,0.2374,0.2405,0.2452,0.2461,0.2473,0.2537,0.2591,0.2632,0.274,0.2697,0.2697,0.251,0.2406,0.2328,0.2535,0.2435,0.2458,0.2488,0.2422,0.2314,0.2115,0.2118,0.212,0.2123,0.2125,0,0.2297,0.2292,0.2309,0.2313,0.2294,0.237,0.2389,0.2348,0.2311,0.2376,0.2385,0.217,0.2054,0.2066,0.1845,0.1804,0.1835,0.1733,0.1772,0.183,0.1882,0.1789,0.1311,0.1308,0.1306,0.1304,0,0,0.2265,0.2232,0.2222,0.2145,0.2148,0.2083,0.2057,0.1999,0.1995,0.1921,0.1883,0.2014,0.203,0.1674,0.1595,0.1417,0.163,0.1361,0.2016,0.2125,0.2174,0.2284,0.2204,0,0,0,0,0]},{"header":{"parameterUnit":"m.s-1","parameterCategory":2,"la1":30.2991,"la2":30.254,"lo1":-89.0895,"lo2":-89.0444,"dy":0.0017,"dx":0.0017,"nx":28,"ny":28,"refTime":"2025-07-10T21:00:00:Z","depth":"2","parameterNumber":3,"parameterNumberName":"V-component_of_CURRENTS"},"data":[0,0,0,0,0,0,0,0,0,0,0,0,0,0,0,0,0,0,0,0,0,0,0,0,0,0,0,0,0,0,0,0,0,0,0,0,0,0,0,0,0,0,0,0,0,0,0,0,0,0,0,0,0,0,0,0,0,0,0.0094,0.0093,0,0.0039,0.0038,0.0038,0.0009,0.0009,0.0009,0.0009,-0.0032,-0.0033,-0.0034,0,0,0,0,0,0,0,0,0,0,0,0,0,0.0134,0.0134,0.0094,0.0093,0.0092,0.0039,0.0038,0.0037,0.0009,0.0009,0.0009,0.0009,-0.0031,-0.0033,-0.0034,0,0,0,0,0,0,0,0,0,0,0,0,0,0.0102,0.0134,0.0094,0.0071,0.0069,0.0039,0.0038,0.0037,0.0009,0.0009,0.0009,0.0009,-0.0031,-0.0032,-0.0034,-0.004,0,0,-0.0038,-0.0039,0,0,0,0,0,0,0,0,0.0104,0.0101,0.0075,0.0073,0.007,0.003,0.0037,0.0012,0.0009,0.0033,0.0009,0.0008,-0.001,-0.0013,-0.0022,-0.0042,-0.0043,-0.0038,-0.0039,-0.004,-0.004,0,0,0,0,0,0,0,0.0107,0.0103,0.0073,0.0075,0.0071,0.005,0.0045,0.0032,0.0014,0.003,0.0028,0.0021,-0.0012,-0.0021,-0.0024,-0.0044,-0.0038,-0.004,-0.0041,-0.0041,-0.0003,-0.0001,0,0,0,0,0,0,0.0114,0.0105,0.0075,0.0071,0.0086,0.0049,0.0044,0.0043,0.0013,0.0008,0.0021,0.0019,-0.0018,-0.0022,-0.0025,0.0002,-0.004,-0.0041,-0.0042,-0.0005,-0.0003,-0.0001,0,0,0,0,0,0,0.0115,0.0112,0.0077,0.0086,0.008,0.0049,0.0048,0.0042,0.0035,0.0006,0.0001,0.0019,-0.0019,-0.0023,-0.0023,-0.0001,-0.0042,-0.0043,-0.0007,-0.0004,-0.0002,0.0033,0,0,0,0,0,0,0.0117,0.0113,0.0116,0.0087,0.008,0.0068,0.0048,0.0041,0.003,0.0028,0.0003,-0.0001,-0.0019,-0.0021,-0.0025,-0.0004,-0.0044,-0.001,-0.0006,-0.0002,0.0029,0.0037,0.0043,0,0,0,0,0,0.0119,0.0126,0.0117,0.0113,0.0085,0.0068,0.0063,0.004,0.003,0.0032,0.0021,-0.0,-0.0,-0.0021,-0.0026,-0.0005,-0.0011,-0.0007,-0.0003,0.0026,0.0035,0.0043,0,0,0,0,0,0,0.0143,0.0123,0.0112,0.0112,0.0094,0.0063,0.0061,0.0045,0.0035,0.0036,0.0009,0.0005,0.0013,0.0007,-0.0015,0.0022,-0.0003,0.0,0.0021,0.0029,0.0035,0.0066,-0.0046,0,0,0,0,0,0.015,0.0153,0.0126,0.0127,0.012,0.0092,0.0082,0.0068,0.0053,0.0048,0.0029,0.0025,0.0028,0.0029,0.0023,0.0037,0.0028,0.0055,0.0062,0.0067,0.0093,0.0103,0.0112,0.0013,0.0013,0.0013,0,0,0.0159,0.0148,0.0149,0.0132,0.0117,0.0122,0.0086,0.0079,0.009,0.0046,0.0057,0.0038,0.0036,0.0051,0.0057,0.0047,0.0086,0.0073,0.0077,0.01,0.0108,0.0118,0.0126,0.0016,0.0016,0.0015,0,0,0.0181,0.017,0.0181,0.0172,0.0154,0.0143,0.0144,0.0117,0.0115,0.0116,0.0097,0.0105,0.009,0.0104,0.0109,0.0156,0.0115,0.0146,0.0208,0.0216,0.0224,0.0231,0.0203,0.0208,0.0157,0.0157,0.0157,0,0.0193,0.0205,0.018,0.0189,0.0194,0.0159,0.0179,0.0171,0.0149,0.0162,0.013,0.0146,0.0128,0.0177,0.0187,0.0172,0.015,0.0168,0.0223,0.023,0.0236,0.0207,0.0211,0.0159,0.0159,0.0159,0.0159,0,0.0223,0.0234,0.024,0.0248,0.025,0.0259,0.0249,0.0255,0.0243,0.0236,0.0264,0.0242,0.0261,0.0251,0.0226,0.0274,0.0232,0.0218,0.0196,0.0248,0.0213,0.0217,0.0162,0.0162,0.0161,0.016,0,0,0.0254,0.0262,0.0267,0.029,0.0286,0.0298,0.0325,0.0348,0.0388,0.0358,0.0411,0.0399,0.0382,0.039,0.0363,0.0366,0.0367,0.0309,0.0308,0.0271,0.0351,0.0304,0.0302,0.0347,0.0348,0.035,0.0296,0,0.029,0.033,0.0324,0.0376,0.0401,0.0394,0.043,0.0447,0.0454,0.049,0.048,0.0509,0.0438,0.0451,0.0441,0.0391,0.0384,0.0381,0.0318,0.0316,0.0259,0.0309,0.0312,0.0264,0.03,0.03,0.0301,0,0.0329,0.0354,0.0406,0.0461,0.0474,0.0499,0.0572,0.0601,0.0637,0.0644,0.0664,0.0642,0.0652,0.0585,0.0529,0.0521,0.0447,0.0397,0.0393,0.035,0.0279,0.0227,0.0269,0.0307,0.0306,0.0306,0.0305,0,0.0378,0.0422,0.0474,0.0486,0.0531,0.0568,0.0604,0.0649,0.0707,0.0751,0.0791,0.0777,0.0785,0.0705,0.0575,0.0555,0.0496,0.0461,0.0352,0.0345,0.0341,0.0332,0.0438,0.0438,0.0438,0.0438,0.0438,0,0.0427,0.047,0.0501,0.0529,0.0618,0.0628,0.0733,0.0762,0.0833,0.0919,0.0878,0.0928,0.0814,0.0753,0.0625,0.0492,0.0532,0.038,0.0345,0.0349,0.0343,0.0382,0.0377,0.0436,0.0437,0.0437,0.0437,0,0.0471,0.0485,0.0551,0.0609,0.0639,0.0706,0.082,0.0902,0.0942,0.1055,0.1076,0.1052,0.0964,0.0824,0.0692,0.0564,0.0442,0.0382,0.0372,0.0338,0.0269,0.0266,0.0276,0.0274,0.0273,0.0271,0.027,0,0.0495,0.0528,0.0612,0.0669,0.0698,0.08,0.0883,0.0955,0.1047,0.1128,0.1189,0.1137,0.1106,0.0874,0.0657,0.0442,0.0417,0.0295,0.0279,0.0296,0.0261,0.026,0.0259,0.0269,0.0268,0.0267,0.0266,0,0.0544,0.0567,0.0624,0.0738,0.0828,0.0948,0.1064,0.115,0.1241,0.1314,0.1369,0.1345,0.1127,0.0904,0.0604,0.0454,0.0331,0.0272,0.0322,0.0308,0.0285,0.0251,0.0251,0.0259,0.026,0.0261,0.0261,0.0261,0.058,0.063,0.0703,0.0817,0.0927,0.1067,0.1175,0.1286,0.1416,0.1515,0.1483,0.1431,0.1188,0.0795,0.054,0.0272,0.0294,0.0191,0.0195,0.02,0.0208,0.0184,0.0139,0.0139,0.0139,0.0139,0.0139,0,0.0626,0.0684,0.0784,0.0917,0.1041,0.1098,0.1279,0.1378,0.1511,0.157,0.1596,0.1344,0.1089,0.0804,0.0408,0.0178,0.0171,0.0094,0.0139,0.0147,0.0153,0.0161,0.0077,0.0077,0.0076,0.0075,0,0,0.0651,0.074,0.0788,0.098,0.1085,0.1258,0.1361,0.1489,0.1565,0.1609,0.1568,0.1504,0.1157,0.086,0.0543,0.0311,0.0285,0.0261,0.0333,0.0431,0.0441,0.0227,0.0249,0,0,0,0,0]}],[{"header":{"parameterUnit":"m.s-1","parameterCategory":2,"la1":30.2991,"la2":30.254,"lo1":-89.0895,"lo2":-89.0444,"dy":0.0017,"dx":0.0017,"nx":28,"ny":28,"refTime":"2025-07-10T21:00:00:Z","depth":"4","parameterNumber":2,"parameterNumberName":"U-component_of_CURRENTS"},"data":[0,0,0,0,0,0,0,0,0,0,0,0,0,0,0,0,0,0,0,0,0,0,0,0,0,0,0,0,0,0,0,0,0,0,0,0,0,0,0,0,0,0,0,0,0,0,0,0,0,0,0,0,0,0,0,0,0,0,0.1578,0.1578,0,0.1539,0.1538,0.1537,0.1542,0.1543,0.1544,0.1545,0.1483,0.148,0.1478,0,0,0,0,0,0,0,0,0,0,0,0,0,0.1573,0.1573,0.1578,0.1578,0.1578,0.1539,0.1538,0.1537,0.1542,0.1543,0.1545,0.1546,0.1484,0.1481,0.1477,0,0,0,0,0,0,0,0,0,0,0,0,0,0.1553,0.1573,0.1578,0.158,0.158,0.1539,0.1538,0.1537,0.1542,0.1543,0.1545,0.1547,0.1485,0.1481,0.1477,0.1417,0,0,0.1465,0.1463,0,0,0,0,0,0,0,0,0.1554,0.1553,0.158,0.158,0.158,0.1552,0.1513,0.1497,0.1541,0.155,0.1545,0.1547,0.1506,0.1501,0.1482,0.1414,0.1412,0.1464,0.1462,0.146,0.1459,0,0,0,0,0,0,0,0.1556,0.1554,0.1557,0.158,0.158,0.1554,0.1553,0.151,0.1514,0.155,0.1551,0.1555,0.1506,0.1486,0.148,0.1411,0.1464,0.1461,0.1458,0.1457,0.1439,0.1441,0,0,0,0,0,0,0.1574,0.1556,0.1558,0.1556,0.1577,0.1554,0.1552,0.1555,0.1515,0.1513,0.1554,0.1556,0.1492,0.1485,0.1478,0.1514,0.146,0.1456,0.1454,0.1437,0.1439,0.1441,0,0,0,0,0,0,0.1574,0.1575,0.156,0.156,0.1557,0.1553,0.1555,0.1553,0.1572,0.152,0.1516,0.158,0.1493,0.1484,0.1472,0.1508,0.1454,0.1451,0.1435,0.1438,0.144,0.1515,0,0,0,0,0,0,0.1574,0.1575,0.1595,0.1561,0.1558,0.1554,0.1554,0.1551,0.1572,0.1575,0.154,0.1534,0.1494,0.1479,0.1468,0.1501,0.1447,0.1432,0.1436,0.1439,0.151,0.1521,0.1529,0,0,0,0,0,0.1574,0.159,0.1596,0.1597,0.1582,0.1555,0.155,0.1548,0.1573,0.1574,0.1563,0.1537,0.1497,0.1476,0.1463,0.1496,0.143,0.1435,0.1439,0.1506,0.1519,0.1529,0,0,0,0,0,0,0.1596,0.1591,0.1597,0.1612,0.1596,0.1558,0.1572,0.1571,0.1561,0.158,0.1538,0.1529,0.1532,0.1508,0.1487,0.1508,0.1468,0.1471,0.1524,0.1535,0.1544,0.1577,0.1444,0,0,0,0,0,0.1611,0.1627,0.1607,0.1621,0.1623,0.1606,0.1605,0.16,0.1584,0.1584,0.1559,0.1548,0.1532,0.1532,0.15,0.15,0.1499,0.1524,0.1533,0.1541,0.1563,0.1601,0.1616,0.1456,0.1456,0.1456,0,0,0.1625,0.1626,0.1637,0.1629,0.1624,0.1608,0.1609,0.1616,0.161,0.1576,0.1575,0.1566,0.1538,0.1538,0.1541,0.1529,0.1584,0.1547,0.1553,0.1572,0.1608,0.1623,0.1637,0.1459,0.1459,0.1458,0,0,0.1643,0.1664,0.1677,0.1664,0.1665,0.1642,0.1656,0.1635,0.1643,0.1634,0.1621,0.1649,0.1604,0.1607,0.16,0.1648,0.1623,0.1644,0.1724,0.1761,0.1774,0.1786,0.1792,0.1804,0.1661,0.1661,0.1661,0,0.1665,0.1667,0.1675,0.1672,0.1665,0.1664,0.1656,0.1651,0.1629,0.1639,0.1651,0.1655,0.1643,0.1662,0.1699,0.167,0.1676,0.1677,0.1773,0.1785,0.1796,0.1799,0.1811,0.1665,0.1665,0.1664,0.1664,0,0.1667,0.1678,0.1685,0.1679,0.1671,0.1666,0.1655,0.1665,0.1686,0.168,0.1719,0.1724,0.1737,0.1751,0.1744,0.1819,0.1792,0.1768,0.1743,0.1817,0.1815,0.1826,0.1671,0.1669,0.1668,0.1667,0,0,0.1676,0.1686,0.169,0.1681,0.1674,0.1655,0.1672,0.1667,0.1691,0.1716,0.1762,0.1792,0.1828,0.1829,0.1839,0.1904,0.1995,0.1893,0.1893,0.1896,0.2063,0.1911,0.1908,0.1991,0.1993,0.1996,0.2025,0,0.1671,0.1671,0.1674,0.1655,0.1645,0.1651,0.1656,0.1664,0.1692,0.1734,0.1798,0.1839,0.1843,0.1891,0.1951,0.199,0.2032,0.1989,0.1995,0.1995,0.1848,0.1919,0.2005,0.2034,0.2036,0.2038,0.2039,0,0.1654,0.1656,0.1656,0.164,0.1639,0.1632,0.165,0.166,0.1723,0.176,0.1835,0.1877,0.199,0.1991,0.2092,0.2066,0.2078,0.2105,0.2105,0.1949,0.1864,0.1948,0.2059,0.2058,0.2056,0.2055,0.2054,0,0.1631,0.1626,0.1629,0.1622,0.1617,0.1631,0.1638,0.168,0.1715,0.1811,0.1872,0.1955,0.2045,0.2094,0.2154,0.214,0.2253,0.2218,0.2075,0.2063,0.2156,0.2143,0.2275,0.2275,0.2275,0.2275,0.2275,0,0.1592,0.1588,0.1624,0.1616,0.1618,0.1629,0.1662,0.1683,0.1768,0.1812,0.1905,0.1971,0.2089,0.2157,0.218,0.2162,0.2257,0.2106,0.2072,0.2183,0.2174,0.2162,0.2149,0.2276,0.2275,0.2275,0.2275,0,0.1552,0.1579,0.1578,0.1599,0.161,0.1619,0.1676,0.1694,0.1789,0.1869,0.1921,0.2032,0.2106,0.2169,0.2254,0.218,0.2188,0.2142,0.2257,0.2226,0.1963,0.1954,0.1992,0.1987,0.1983,0.198,0.1977,0,0.1521,0.1529,0.1576,0.1579,0.1591,0.1622,0.1635,0.1706,0.1729,0.1879,0.1902,0.2032,0.2082,0.2071,0.2142,0.2135,0.2103,0.2073,0.2031,0.1977,0.1941,0.1938,0.1934,0.197,0.1969,0.1968,0.1967,0,0.1461,0.1512,0.1521,0.1547,0.1559,0.1557,0.1586,0.1603,0.1686,0.1808,0.1843,0.1884,0.1945,0.1983,0.1982,0.1977,0.2087,0.203,0.2038,0.1997,0.1951,0.1918,0.1919,0.1953,0.1955,0.1956,0.1957,0,0.1432,0.1436,0.1478,0.1474,0.1499,0.1459,0.1487,0.1493,0.1537,0.1687,0.1701,0.1819,0.1931,0.19,0.1911,0.1887,0.1853,0.178,0.1801,0.1817,0.1744,0.1659,0.1558,0,0,0,0,0,0.138,0.1372,0.1381,0.1359,0.1383,0.1388,0.1425,0.1456,0.1561,0.1538,0.161,0.1653,0.1678,0.1742,0.1679,0.1823,0.1855,0.174,0.178,0.1873,0.189,0.1819,0,0,0,0,0,0,0.1339,0.1362,0.1354,0.127,0.1238,0.1231,0.1252,0.1315,0.1299,0.1429,0.1451,0.1553,0.1602,0.1705,0.1655,0.1668,0.1655,0.1811,0.1806,0.1864,0.1879,0.1892,0.1825,0,0,0,0,0]},{"header":{"parameterUnit":"m.s-1","parameterCategory":2,"la1":30.2991,"la2":30.254,"lo1":-89.0895,"lo2":-89.0444,"dy":0.0017,"dx":0.0017,"nx":28,"ny":28,"refTime":"2025-07-10T21:00:00:Z","depth":"4","parameterNumber":3,"parameterNumberName":"V-component_of_CURRENTS"},"data":[0,0,0,0,0,0,0,0,0,0,0,0,0,0,0,0,0,0,0,0,0,0,0,0,0,0,0,0,0,0,0,0,0,0,0,0,0,0,0,0,0,0,0,0,0,0,0,0,0,0,0,0,0,0,0,0,0,0,0.0091,0.0091,0,0.0072,0.0071,0.0071,0.0063,0.0063,0.0062,0.0062,0.0115,0.0117,0.0118,0,0,0,0,0,0,0,0,0,0,0,0,0,0.0115,0.0115,0.0091,0.0091,0.009,0.0072,0.0071,0.0071,0.0063,0.0063,0.0062,0.0062,0.0115,0.0116,0.0118,0,0,0,0,0,0,0,0,0,0,0,0,0,0.0103,0.0114,0.0091,0.0082,0.0081,0.0072,0.0071,0.0071,0.0063,0.0063,0.0062,0.0062,0.0114,0.0116,0.0119,0.0138,0,0,0.0126,0.0127,0,0,0,0,0,0,0,0,0.0104,0.0102,0.0084,0.0083,0.0081,0.0067,0.0099,0.0097,0.0063,0.0072,0.0062,0.0062,0.0105,0.0108,0.0107,0.0141,0.0143,0.0126,0.0127,0.0129,0.0129,0,0,0,0,0,0,0,0.0104,0.0103,0.0086,0.0083,0.0082,0.0077,0.0075,0.0098,0.0093,0.0071,0.007,0.0064,0.0105,0.0104,0.0108,0.0144,0.0126,0.0128,0.013,0.013,0.0219,0.022,0,0,0,0,0,0,0.0103,0.0104,0.0086,0.0085,0.0089,0.0076,0.0074,0.0074,0.0091,0.0092,0.0065,0.0064,0.0101,0.0105,0.011,0.0161,0.0128,0.0131,0.0132,0.0218,0.0219,0.022,0,0,0,0,0,0,0.0104,0.0102,0.0087,0.0092,0.0089,0.0076,0.0075,0.0074,0.0075,0.0085,0.0088,0.0068,0.0101,0.0107,0.014,0.0162,0.0132,0.0134,0.0217,0.0218,0.0219,0.0246,0,0,0,0,0,0,0.0105,0.0102,0.0106,0.0092,0.0089,0.0087,0.0075,0.0073,0.0071,0.007,0.0089,0.0093,0.0101,0.0137,0.0143,0.0165,0.0136,0.0215,0.0217,0.0219,0.0244,0.0249,0.0252,0,0,0,0,0,0.0106,0.0111,0.0106,0.0104,0.0093,0.0088,0.0086,0.0077,0.0071,0.0077,0.0092,0.0093,0.0152,0.014,0.0146,0.017,0.0215,0.0217,0.0219,0.0243,0.0248,0.0252,0,0,0,0,0,0,0.0123,0.011,0.0105,0.0106,0.0099,0.0085,0.0088,0.008,0.0095,0.0099,0.0107,0.0114,0.0149,0.0157,0.0143,0.0199,0.0183,0.0186,0.0198,0.0203,0.0207,0.0206,0.0138,0,0,0,0,0,0.0127,0.0131,0.0115,0.0118,0.0115,0.0103,0.01,0.0095,0.0101,0.0105,0.0117,0.0137,0.0162,0.018,0.0199,0.0235,0.0212,0.0253,0.0257,0.026,0.0264,0.0237,0.0238,0.0227,0.0227,0.0227,0,0,0.0134,0.0128,0.0129,0.0122,0.0117,0.0128,0.0102,0.0102,0.0125,0.0112,0.0149,0.0151,0.0174,0.021,0.0227,0.0221,0.0252,0.0263,0.0266,0.0268,0.0239,0.024,0.0241,0.0228,0.0228,0.0228,0,0,0.0151,0.0145,0.0153,0.0153,0.0146,0.0146,0.0147,0.0139,0.0149,0.0178,0.0176,0.0187,0.0229,0.0242,0.0258,0.0296,0.027,0.0305,0.033,0.0305,0.0305,0.0305,0.0273,0.027,0.0311,0.0311,0.0311,0,0.0161,0.0172,0.0156,0.0166,0.0176,0.0158,0.0179,0.0189,0.0196,0.021,0.0199,0.0235,0.0246,0.0289,0.0299,0.0305,0.028,0.031,0.0308,0.0307,0.0307,0.0274,0.0271,0.0313,0.0313,0.0312,0.0312,0,0.0185,0.0198,0.0204,0.0219,0.0228,0.0242,0.0251,0.0268,0.0274,0.0274,0.0304,0.0304,0.0323,0.0327,0.0329,0.034,0.0319,0.0309,0.0292,0.0309,0.0274,0.027,0.0315,0.0314,0.0314,0.0314,0,0,0.0203,0.0219,0.0224,0.0246,0.026,0.0274,0.0317,0.0346,0.0373,0.037,0.0397,0.0417,0.0388,0.0403,0.0393,0.037,0.034,0.034,0.0338,0.0301,0.0272,0.0262,0.0256,0.0322,0.0322,0.0322,0.0247,0,0.0232,0.0268,0.0273,0.0325,0.0347,0.0358,0.0401,0.0425,0.0435,0.0455,0.0443,0.0463,0.0429,0.0434,0.0404,0.036,0.033,0.036,0.0267,0.0265,0.0247,0.0252,0.032,0.0243,0.0242,0.0242,0.0241,0,0.0261,0.0284,0.0334,0.0387,0.0399,0.0432,0.0493,0.053,0.0549,0.0552,0.0546,0.0526,0.051,0.0471,0.039,0.0407,0.0343,0.0296,0.0292,0.0271,0.0247,0.0224,0.0232,0.0233,0.0234,0.0234,0.0235,0,0.0288,0.0335,0.0382,0.0397,0.0447,0.0485,0.0524,0.0557,0.0602,0.061,0.0621,0.0583,0.0574,0.0488,0.039,0.0388,0.0281,0.0269,0.0197,0.0195,0.0212,0.0213,0.0201,0.0202,0.0202,0.0202,0.0202,0,0.0322,0.0361,0.04,0.0425,0.05,0.0521,0.0601,0.0625,0.0665,0.0709,0.0669,0.0678,0.0575,0.0505,0.0403,0.0285,0.0289,0.0199,0.0177,0.0226,0.0229,0.0208,0.021,0.0199,0.02,0.02,0.0201,0,0.0344,0.0365,0.0423,0.0483,0.0512,0.0568,0.0665,0.0715,0.0737,0.0791,0.0799,0.0754,0.0661,0.0543,0.0403,0.0313,0.0197,0.0152,0.0211,0.0192,0.0122,0.0127,0.0069,0.0068,0.0067,0.0067,0.0066,0,0.0356,0.0385,0.0465,0.0512,0.0544,0.0632,0.0695,0.0751,0.0801,0.0834,0.0855,0.0792,0.0741,0.0533,0.0401,0.0207,0.0177,0.0109,0.0117,0.0126,0.0109,0.0115,0.012,0.0065,0.0065,0.0064,0.0064,0,0.0383,0.041,0.0459,0.0551,0.0624,0.0716,0.0802,0.0844,0.0903,0.0919,0.09,0.0806,0.0699,0.0537,0.0386,0.0246,0.015,0.01,0.0101,0.0107,0.012,0.0106,0.0112,0.0061,0.0062,0.0062,0.0062,0,0.0404,0.0442,0.0505,0.0592,0.0684,0.0771,0.0821,0.0876,0.0928,0.0949,0.0937,0.0825,0.0761,0.0557,0.0418,0.0281,0.0245,0.019,0.0185,0.0186,0.0242,0.0276,0.0246,0,0,0,0,0,0.0422,0.0467,0.0544,0.0637,0.0729,0.0787,0.088,0.0919,0.0964,0.0955,0.0951,0.085,0.0655,0.0571,0.0433,0.0397,0.0218,0.0229,0.0151,0.0046,0.0049,0.0093,0,0,0,0,0,0,0.0433,0.0502,0.054,0.0658,0.0729,0.0835,0.0898,0.0931,0.0927,0.0941,0.0839,0.0799,0.061,0.0731,0.0424,0.0385,0.0312,0.0143,0.0139,0.0044,0.0047,0.005,0.0096,0,0,0,0,0]}]]